This demonstration page uses our WeatherBlox Daily Observations layout. Learn more.

Left ArrowRight Arrow

44.31136, -96.79839

Hourly Observations for August 31, 2018

Temp ( °F °C ) Dew Point ( °F °C ) Humidity (%) Winds ( mph kmh ) Pressure ( in mb ) Visibility ( mi km ) Precip ( " mm )
12:33 am 00:33 Cloudy with Mist and Fog 70 21 68 20 94 94 SSE 13 20 29.80 1009 6 10 0.00 0.00
12:56 am 00:56 Mostly Cloudy 70 21.1 68 20 93 93 SSE 10 17 29.87 1012 7 11 0.00 0.00
1:06 am 01:06 Mostly Cloudy 70 21 68 20 94 94 S 15 24 29.80 1009 7 11 0.00 0.00
1:18 am 01:18 Cloudy 70 21 68 20 94 94 S 13 20 29.80 1009 7 11 0.00 0.00
1:56 am 01:56 Mostly Cloudy with Mist and Fog 68 20 67 19.4 96 96 S 13 20 29.85 1011 6 10 0.00 0.00
2:56 am 02:56 Mostly Cloudy 67 19.4 66 18.9 97 97 S 12 19 29.84 1010 7 11 0.00 0.00
3:40 am 03:40 Mostly Cloudy 66 19 66 19 100 100 SSE 12 19 29.77 1008 8 13 0.00 0.00
3:56 am 03:56 Mostly Cloudy 67 19.4 66 18.9 97 97 SSE 15 24 29.83 1010 8 13 0.00 0.00
4:56 am 04:56 Cloudy 67 19.4 66 18.9 97 97 S 15 24 29.82 1010 9 14 0.00 0.00
5:56 am 05:56 Cloudy 67 19.4 66 18.9 97 97 S 14 22 29.82 1010 9 14 0.00 0.00
6:56 am 06:56 Cloudy 68 20 66 18.9 93 93 S 14 22 29.81 1010 9 14 0.00 0.00
7:56 am 07:56 Cloudy 68 20 66 18.9 93 93 SSW 12 19 29.83 1010 10 16 0.00 0.00
8:56 am 08:56 Cloudy 68 20 66 18.9 93 93 SSE 7 11 29.80 1009 9 14 0.00 0.00
9:56 am 09:56 Cloudy 68 20 67 19.4 96 96 WNW 10 17 29.83 1010 7 11 0.00 0.00
10:56 am 10:56 Cloudy with Mist and Fog 68 20 66 18.9 93 93 SSE 22 35 29.80 1009 4 6 0.00 0.00
11:56 am 11:56 Cloudy 68 20 66 18.9 93 93 SSE 21 33 29.80 1009 7 11 0.00 0.00
12:42 pm 12:42 Cloudy 70 21 66 19 88 88 S 18 30 29.74 1007 10 16 0.00 0.00
12:56 pm 12:56 Cloudy 69 20.6 67 19.4 93 93 SSE 20 31 29.79 1009 9 14 0.00 0.00
1:56 pm 13:56 Cloudy 69 20.6 67 19.4 93 93 S 17 28 29.79 1009 7 11 0.00 0.00
2:56 pm 14:56 Cloudy 72 22.2 68 20 87 87 S 21 33 29.75 1007 10 16 0.00 0.00
3:17 pm 15:17 Cloudy 73 23 68 20 83 83 SSW 15 24 29.65 1004 10 16 0.00 0.00
3:56 pm 15:56 Partly Cloudy 75 23.9 68 20 79 79 S 20 31 29.71 1006 10 16 0.00 0.00
4:56 pm 16:56 Sunny 77 25 70 21.1 79 79 S 8 13 29.73 1007 10 16 0.00 0.00
5:56 pm 17:56 Sunny 78 25.6 70 21.1 76 76 SSW 9 15 29.75 1007 10 16 0.00 0.00
6:56 pm 18:56 Sunny 77 25 70 21.1 79 79 SW 5 7 29.78 1008 10 16 0.00 0.00
7:56 pm 19:56 Mostly Cloudy 74 23.3 70 21.1 88 88 Calm 29.80 1009 10 16 0.00 0.00
8:30 pm 20:30 Mostly Cloudy with Mist and Fog 73 23 70 21 89 89 Calm 29.71 1006 2 3 0.00 0.00
8:39 pm 20:39 Mostly Cloudy 72 22 70 21 94 94 Calm 29.74 1007 7 11 0.00 0.00
8:56 pm 20:56 Cloudy 73 22.8 70 21.1 90 90 NNE 5 7 29.81 1010 10 16 0.00 0.00
9:56 pm 21:56 Mostly Clear 72 22.2 69 20.6 91 91 SE 6 9 29.82 1010 10 16 0.00 0.00
10:56 pm 22:56 Clear 70 21.1 68 20 93 93 Calm 29.82 1010 8 13 0.00 0.00
11:56 pm 23:56 Clear with Mist and Fog 67 19.4 66 18.9 97 97 Calm 29.83 1010 5 8 0.00 0.00

Powered by AerisWeather